Location: Vale
(35.4830°N, 81.3830°W)
Time: 07:14:58
(UTC-05:00)

Cosmos 2237 Rocket - Visible Passes

Search period start: 24 February 2018 00:00
Search period end: 06 March 2018 00:00
Orbit: 836 x 848 km, 71.0° (Epoch: 23 February)

Date Brightness Start Highest point End Pass type
(mag) Time Alt. Az. Time Alt. Az. Time Alt. Az.
26 Feb 5.8 19:27:47 10° W 19:28:41 10° W 19:29:36 10° WSW visible
27 Feb 5.8 19:12:18 10° W 19:13:52 11° W 19:15:27 10° WSW visible
28 Feb 4.4 06:29:56 10° SSE 06:34:51 32° ESE 06:39:47 10° NE visible
28 Feb 5.8 18:57:01 10° WNW 18:59:03 12° W 19:01:05 10° WSW visible
01 Mar 4.4 06:15:11 10° SSE 06:20:01 30° ESE 06:24:51 10° NE visible
01 Mar 5.8 18:41:50 10° WNW 18:44:14 13° W 18:46:38 10° WSW visible
02 Mar 4.5 06:00:26 10° SSE 06:05:11 28° ESE 06:09:56 10° NE visible
03 Mar 4.5 05:45:42 10° SSE 05:50:21 27° ESE 05:55:00 10° NE visible
04 Mar 4.5 05:30:59 10° SSE 05:35:31 26° ESE 05:40:03 10° NE visible
05 Mar 4.5 05:16:16 10° SSE 05:20:41 24° ESE 05:25:07 10° NE visible
